[[{"header":{"parameterUnit":"m.s-1","parameterCategory":1,"la1":30.2991,"la2":30.254,"lo1":-89.0895,"lo2":-89.0444,"dy":0.0017,"dx":0.0017,"nx":28,"ny":28,"refTime":"2024-08-20T03:00:00:Z","depth":0,"parameterNumber":2,"parameterNumberName":"U-component_of_WINDS"},"data":[0,0,0,0,0,0,0,0,0,0,0,0,0,0,0,0,0,0,0,0,0,0,0,0,0,0,0,0,0,0,0,0,0,0,0,0,0,0,0,0,0,0,0,0,0,0,0,0,0,0,0,0,0,0,0,0,0,0,-0.6128,-0.6126,0,-0.5995,-0.5993,-0.5992,-0.5879,-0.5878,-0.5877,-0.5875,-0.5738,-0.5736,-0.5733,0,0,0,0,0,0,0,0,0,0,0,0,0,-0.6284,-0.6282,-0.6128,-0.6126,-0.6124,-0.5995,-0.5993,-0.5991,-0.5879,-0.5878,-0.5876,-0.5875,-0.5739,-0.5736,-0.5733,0,0,0,0,0,0,0,0,0,0,0,0,0,-0.619,-0.6281,-0.6128,-0.6053,-0.6045,-0.5995,-0.5993,-0.5991,-0.588,-0.5878,-0.5876,-0.5874,-0.574,-0.5736,-0.5733,-0.5746,0,0,-0.5721,-0.572,0,0,0,0,0,0,0,0,-0.6196,-0.6185,-0.6066,-0.6058,-0.6049,-0.5952,-0.5998,-0.5909,-0.588,-0.5942,-0.5875,-0.5873,-0.5811,-0.5801,-0.578,-0.574,-0.5734,-0.5721,-0.5719,-0.5717,-0.5716,0,0,0,0,0,0,0,-0.6202,-0.619,-0.6075,-0.6064,-0.6054,-0.6026,-0.601,-0.598,-0.5888,-0.5937,-0.5928,-0.5914,-0.5806,-0.5784,-0.5776,-0.5732,-0.5721,-0.5718,-0.5715,-0.5714,-0.5698,-0.57,0,0,0,0,0,0,-0.6221,-0.6196,-0.6079,-0.6071,-0.6119,-0.6024,-0.6007,-0.5985,-0.5888,-0.5872,-0.5916,-0.5909,-0.5791,-0.5781,-0.5771,-0.5782,-0.5717,-0.5714,-0.5711,-0.5697,-0.5699,-0.5701,0,0,0,0,0,0,-0.6224,-0.6211,-0.6085,-0.6131,-0.6113,-0.6024,-0.5999,-0.5983,-0.5961,-0.5873,-0.5856,-0.5911,-0.5789,-0.5776,-0.5754,-0.5776,-0.5712,-0.5708,-0.5694,-0.5697,-0.57,-0.5804,0,0,0,0,0,0,-0.6229,-0.6213,-0.6218,-0.6132,-0.6111,-0.607,-0.6001,-0.5982,-0.5955,-0.5945,-0.5863,-0.5848,-0.5787,-0.576,-0.575,-0.5769,-0.5705,-0.5692,-0.5696,-0.5699,-0.5799,-0.581,-0.582,0,0,0,0,0,-0.6235,-0.6252,-0.6219,-0.6205,-0.6115,-0.6072,-0.606,-0.599,-0.5957,-0.5961,-0.5904,-0.585,-0.5775,-0.5759,-0.5747,-0.5765,-0.569,-0.5695,-0.5699,-0.5794,-0.5808,-0.582,0,0,0,0,0,0,-0.6342,-0.6239,-0.6201,-0.619,-0.6141,-0.6053,-0.6056,-0.6007,-0.5965,-0.5957,-0.5872,-0.5854,-0.5842,-0.58,-0.5785,-0.5774,-0.5725,-0.5727,-0.5802,-0.5815,-0.5825,-0.5836,-0.5702,0,0,0,0,0,-0.6364,-0.6338,-0.625,-0.6249,-0.6226,-0.6146,-0.6124,-0.6074,-0.6019,-0.5998,-0.5939,-0.5888,-0.5852,-0.5831,-0.5793,-0.5791,-0.5773,-0.5798,-0.5809,-0.5819,-0.5822,-0.582,-0.5831,-0.5714,-0.5714,-0.5714,0,0,-0.6409,-0.635,-0.6339,-0.6269,-0.6224,-0.62,-0.6128,-0.6105,-0.6086,-0.5994,-0.597,-0.5926,-0.5862,-0.5851,-0.5843,-0.5817,-0.585,-0.5824,-0.5832,-0.583,-0.5825,-0.5836,-0.5846,-0.5717,-0.5717,-0.5716,0,0,-0.6481,-0.6433,-0.6427,-0.6385,-0.6319,-0.6266,-0.6265,-0.6184,-0.6151,-0.6126,-0.6057,-0.6033,-0.5973,-0.5932,-0.5903,-0.596,-0.5909,-0.595,-0.6007,-0.6006,-0.6016,-0.6023,-0.6045,-0.6054,-0.5953,-0.5953,-0.5953,0,-0.6546,-0.6506,-0.6431,-0.6412,-0.6384,-0.63,-0.6295,-0.6257,-0.6182,-0.6164,-0.6135,-0.606,-0.6011,-0.599,-0.6004,-0.5983,-0.598,-0.5959,-0.602,-0.6027,-0.6033,-0.6054,-0.6062,-0.5958,-0.5958,-0.5957,-0.5957,0,-0.659,-0.6564,-0.6568,-0.6499,-0.6471,-0.6459,-0.6382,-0.6362,-0.6315,-0.6265,-0.6241,-0.618,-0.613,-0.612,-0.6073,-0.6093,-0.6079,-0.6036,-0.5986,-0.6051,-0.6069,-0.6076,-0.5966,-0.5964,-0.5963,-0.5961,0,0,-0.6725,-0.6616,-0.6619,-0.6587,-0.6509,-0.6487,-0.6471,-0.6422,-0.6408,-0.6359,-0.6345,-0.6297,-0.6258,-0.6225,-0.6173,-0.6172,-0.6223,-0.6129,-0.6126,-0.6151,-0.6243,-0.6278,-0.6288,-0.6189,-0.619,-0.6191,-0.6249,0,-0.6785,-0.6753,-0.6686,-0.6675,-0.6651,-0.6571,-0.6558,-0.6509,-0.6461,-0.6434,-0.6381,-0.6349,-0.6298,-0.6279,-0.6274,-0.6218,-0.6241,-0.6213,-0.6176,-0.6175,-0.6196,-0.6296,-0.6332,-0.639,-0.6255,-0.6256,-0.6257,0,-0.6851,-0.6809,-0.6797,-0.6721,-0.6708,-0.6698,-0.6648,-0.6622,-0.6565,-0.6531,-0.6496,-0.6438,-0.6418,-0.6371,-0.6343,-0.6325,-0.6306,-0.6276,-0.6277,-0.6272,-0.6222,-0.6297,-0.6407,-0.6417,-0.6267,-0.6266,-0.6265,0,-0.6954,-0.6893,-0.6878,-0.6853,-0.6764,-0.6759,-0.6722,-0.6663,-0.6638,-0.6595,-0.6578,-0.6533,-0.6509,-0.6475,-0.6407,-0.6379,-0.6387,-0.6334,-0.636,-0.6362,-0.6366,-0.6368,-0.6478,-0.6351,-0.6351,-0.6351,-0.635,0,-0.7029,-0.7025,-0.6924,-0.6915,-0.6909,-0.683,-0.6826,-0.6781,-0.673,-0.6711,-0.6638,-0.6622,-0.6533,-0.6507,-0.6453,-0.644,-0.6428,-0.6401,-0.6387,-0.6409,-0.6413,-0.6396,-0.6391,-0.6353,-0.6352,-0.6352,-0.6351,0,-0.7143,-0.7074,-0.7054,-0.6972,-0.6951,-0.695,-0.688,-0.6868,-0.6817,-0.6794,-0.6785,-0.6704,-0.6669,-0.6598,-0.6544,-0.6508,-0.6507,-0.6481,-0.6528,-0.6519,-0.655,-0.6549,-0.6655,-0.6666,-0.6531,-0.6532,-0.6533,0,-0.7197,-0.7192,-0.711,-0.7093,-0.7059,-0.7031,-0.7006,-0.6929,-0.6906,-0.6841,-0.6838,-0.6798,-0.6762,-0.6711,-0.6648,-0.6606,-0.658,-0.662,-0.6573,-0.6596,-0.6583,-0.6586,-0.6586,-0.6631,-0.6633,-0.6635,-0.6636,0,-0.73,-0.7267,-0.7234,-0.719,-0.7162,-0.7124,-0.7081,-0.7071,-0.6983,-0.6961,-0.6926,-0.6898,-0.6843,-0.6805,-0.6754,-0.6715,-0.6662,-0.6651,-0.6655,-0.6678,-0.6706,-0.6694,-0.6558,-0.6649,-0.6648,-0.6647,-0.6646,-0.6646,-0.7387,-0.738,-0.7322,-0.7288,-0.7248,-0.721,-0.7196,-0.7143,-0.7112,-0.7063,-0.7018,-0.6988,-0.6931,-0.6857,-0.6822,-0.6797,-0.677,-0.6776,-0.6777,-0.6781,-0.6791,-0.6709,-0.6787,-0.6786,-0.6786,-0.6786,-0.6785,0,-0.7488,-0.7447,-0.7417,-0.736,-0.7334,-0.7286,-0.7236,-0.7218,-0.7192,-0.7143,-0.711,-0.707,-0.7033,-0.6967,-0.6924,-0.6917,-0.6891,-0.6908,-0.6909,-0.6902,-0.6816,-0.6818,-0.693,-0.693,-0.693,-0.693,-0.693,-0.693,-0.7539,-0.7525,-0.7485,-0.7452,-0.7409,-0.7379,-0.7356,-0.7321,-0.7282,-0.7241,-0.721,-0.7167,-0.7112,-0.7065,-0.7029,-0.7011,-0.6999,-0.7025,-0.6999,-0.6921,-0.6907,-0.6894,-0.6896,-0.7023,-0.7023,-0.7087,-0.7088,-0.7088]},{"header":{"parameterUnit":"m.s-1","parameterCategory":1,"la1":30.2991,"la2":30.254,"lo1":-89.0895,"lo2":-89.0444,"dy":0.0017,"dx":0.0017,"nx":28,"ny":28,"refTime":"2024-08-20T03:00:00:Z","depth":0,"parameterNumber":3,"parameterNumberName":"V-component_of_WINDS"},"data":[0,0,0,0,0,0,0,0,0,0,0,0,0,0,0,0,0,0,0,0,0,0,0,0,0,0,0,0,0,0,0,0,0,0,0,0,0,0,0,0,0,0,0,0,0,0,0,0,0,0,0,0,0,0,0,0,0,0,-2.5177,-2.5176,0,-2.5104,-2.5103,-2.5102,-2.508,-2.5081,-2.5081,-2.5082,-2.4997,-2.4994,-2.4992,0,0,0,0,0,0,0,0,0,0,0,0,0,-2.529,-2.5288,-2.5177,-2.5176,-2.5175,-2.5104,-2.5103,-2.5102,-2.508,-2.5081,-2.5081,-2.5082,-2.4998,-2.4995,-2.4992,0,0,0,0,0,0,0,0,0,0,0,0,0,-2.5231,-2.5287,-2.5177,-2.5156,-2.5154,-2.5104,-2.5103,-2.5102,-2.508,-2.5081,-2.5081,-2.5082,-2.4999,-2.4995,-2.4991,-2.4955,0,0,-2.4979,-2.4977,0,0,0,0,0,0,0,0,-2.5234,-2.5227,-2.516,-2.5158,-2.5155,-2.5102,-2.5112,-2.5052,-2.508,-2.5108,-2.5082,-2.5082,-2.5031,-2.5024,-2.5009,-2.4951,-2.4947,-2.4979,-2.4976,-2.4975,-2.4974,0,0,0,0,0,0,0,-2.5238,-2.523,-2.5148,-2.5159,-2.5156,-2.5148,-2.514,-2.51,-2.5066,-2.5105,-2.5104,-2.5096,-2.5029,-2.5013,-2.5007,-2.4946,-2.4979,-2.4975,-2.4973,-2.4971,-2.4855,-2.4854,0,0,0,0,0,0,-2.5247,-2.5233,-2.515,-2.5146,-2.5197,-2.5145,-2.5137,-2.5118,-2.5067,-2.506,-2.5095,-2.5095,-2.5019,-2.5011,-2.5004,-2.4958,-2.4975,-2.4971,-2.4969,-2.4856,-2.4855,-2.4854,0,0,0,0,0,0,-2.525,-2.524,-2.5153,-2.5189,-2.5178,-2.5143,-2.5122,-2.5116,-2.51,-2.506,-2.5052,-2.5085,-2.5019,-2.5009,-2.4968,-2.4955,-2.4969,-2.4966,-2.4856,-2.4855,-2.4854,-2.4867,0,0,0,0,0,0,-2.5253,-2.5241,-2.5229,-2.5189,-2.5176,-2.5121,-2.5121,-2.5115,-2.5094,-2.5093,-2.5048,-2.5041,-2.5019,-2.4974,-2.4964,-2.495,-2.4963,-2.4857,-2.4856,-2.4855,-2.4868,-2.4867,-2.4866,0,0,0,0,0,-2.5257,-2.5233,-2.5228,-2.5219,-2.516,-2.5121,-2.5113,-2.5091,-2.5094,-2.508,-2.5054,-2.5043,-2.4959,-2.497,-2.4959,-2.4943,-2.4858,-2.4856,-2.4855,-2.4868,-2.4867,-2.4866,0,0,0,0,0,0,-2.5268,-2.5228,-2.5222,-2.5185,-2.5157,-2.5117,-2.5099,-2.509,-2.5058,-2.5058,-2.5029,-2.5018,-2.4979,-2.4957,-2.4971,-2.4906,-2.4908,-2.4904,-2.4922,-2.492,-2.4919,-2.4925,-2.4959,0,0,0,0,0,-2.5267,-2.5242,-2.5206,-2.5176,-2.5163,-2.5134,-2.5116,-2.5102,-2.507,-2.5057,-2.5028,-2.4995,-2.4962,-2.494,-2.4906,-2.4865,-2.4854,-2.4848,-2.4848,-2.4847,-2.4843,-2.482,-2.4817,-2.4848,-2.4848,-2.4849,0,0,-2.5263,-2.5238,-2.5222,-2.5178,-2.5155,-2.5127,-2.5124,-2.5093,-2.5071,-2.5051,-2.5012,-2.4989,-2.4951,-2.491,-2.489,-2.489,-2.4833,-2.4845,-2.4845,-2.4841,-2.4818,-2.4815,-2.4813,-2.4847,-2.4848,-2.4848,0,0,-2.5242,-2.522,-2.5194,-2.5172,-2.5138,-2.5119,-2.5113,-2.5075,-2.506,-2.5021,-2.5006,-2.4977,-2.492,-2.4894,-2.4872,-2.4843,-2.4831,-2.4833,-2.4827,-2.4805,-2.4802,-2.48,-2.4789,-2.4786,-2.4829,-2.4829,-2.4829,0,-2.524,-2.52,-2.518,-2.5152,-2.5133,-2.5117,-2.5089,-2.5067,-2.5023,-2.5008,-2.501,-2.4939,-2.4911,-2.4864,-2.4858,-2.4841,-2.4832,-2.4837,-2.4805,-2.4802,-2.48,-2.4789,-2.4785,-2.483,-2.483,-2.483,-2.483,0,-2.5199,-2.5171,-2.5154,-2.5116,-2.5094,-2.5066,-2.504,-2.502,-2.5008,-2.4988,-2.4948,-2.4915,-2.4876,-2.4863,-2.485,-2.4814,-2.4815,-2.4811,-2.4812,-2.4797,-2.4787,-2.4783,-2.483,-2.483,-2.483,-2.483,0,0,-2.5181,-2.5135,-2.5129,-2.5112,-2.5074,-2.5051,-2.5021,-2.4986,-2.4969,-2.4939,-2.4913,-2.4866,-2.4862,-2.4839,-2.4822,-2.4802,-2.4781,-2.48,-2.4799,-2.4798,-2.474,-2.4743,-2.4739,-2.4774,-2.4773,-2.4772,-2.4743,0,-2.5154,-2.5105,-2.5088,-2.5046,-2.5019,-2.5005,-2.4979,-2.4952,-2.4933,-2.4906,-2.4883,-2.485,-2.4848,-2.4834,-2.4814,-2.4788,-2.4769,-2.479,-2.4747,-2.4745,-2.4757,-2.4734,-2.4737,-2.4711,-2.4739,-2.4738,-2.4738,0,-2.5117,-2.5091,-2.5047,-2.5015,-2.5003,-2.498,-2.4947,-2.4922,-2.489,-2.4878,-2.4853,-2.4838,-2.4804,-2.4809,-2.4761,-2.4776,-2.4757,-2.4742,-2.474,-2.4735,-2.474,-2.4727,-2.4702,-2.4698,-2.4731,-2.4732,-2.4732,0,-2.5108,-2.5062,-2.503,-2.5016,-2.4977,-2.4961,-2.4943,-2.4913,-2.4893,-2.4863,-2.485,-2.4815,-2.4796,-2.4768,-2.4743,-2.4749,-2.4698,-2.47,-2.4685,-2.4685,-2.4674,-2.4675,-2.4645,-2.4663,-2.4663,-2.4663,-2.4663,0,-2.508,-2.5054,-2.5026,-2.5006,-2.4976,-2.4956,-2.4926,-2.4907,-2.488,-2.4855,-2.4839,-2.4815,-2.4784,-2.4755,-2.4736,-2.4699,-2.469,-2.4678,-2.4673,-2.4679,-2.4681,-2.4666,-2.4667,-2.4662,-2.4662,-2.4662,-2.4662,0,-2.5065,-2.5045,-2.501,-2.4977,-2.4968,-2.4948,-2.4918,-2.4897,-2.4879,-2.4847,-2.4838,-2.4807,-2.4773,-2.4746,-2.47,-2.4687,-2.4648,-2.4643,-2.466,-2.4658,-2.4644,-2.4646,-2.4603,-2.4596,-2.4619,-2.4619,-2.4619,0,-2.5048,-2.5029,-2.4995,-2.4979,-2.4963,-2.4936,-2.4917,-2.4896,-2.4876,-2.484,-2.4823,-2.4789,-2.476,-2.4705,-2.4677,-2.4642,-2.4635,-2.4623,-2.4629,-2.4637,-2.4635,-2.4636,-2.4634,-2.4622,-2.4621,-2.4621,-2.4621,0,-2.5021,-2.5013,-2.4988,-2.496,-2.4939,-2.4914,-2.489,-2.4876,-2.485,-2.4828,-2.4796,-2.4774,-2.4729,-2.4694,-2.4657,-2.4635,-2.4623,-2.462,-2.4614,-2.462,-2.4631,-2.4625,-2.4658,-2.462,-2.4621,-2.4621,-2.4621,-2.4621,-2.5004,-2.4987,-2.4961,-2.4934,-2.4914,-2.4891,-2.4871,-2.4851,-2.4825,-2.4789,-2.4777,-2.4743,-2.4712,-2.4661,-2.464,-2.4611,-2.461,-2.4602,-2.46,-2.4598,-2.4599,-2.4637,-2.4603,-2.4603,-2.4603,-2.4603,-2.4603,0,-2.4976,-2.496,-2.4935,-2.4903,-2.4881,-2.4876,-2.4849,-2.483,-2.4801,-2.4775,-2.4748,-2.471,-2.4677,-2.4647,-2.4612,-2.4595,-2.4588,-2.4586,-2.4587,-2.4582,-2.4601,-2.461,-2.4592,-2.4592,-2.4592,-2.4592,-2.4592,-2.4592,-2.4959,-2.4929,-2.4918,-2.4878,-2.486,-2.483,-2.4815,-2.4793,-2.4773,-2.4732,-2.4706,-2.4688,-2.466,-2.4623,-2.4592,-2.4584,-2.4571,-2.457,-2.4561,-2.4579,-2.458,-2.4582,-2.459,-2.4568,-2.4568,-2.4543,-2.4543,-2.4543]}]]